Time,TemperatureF,DewpointF,PressureIn,WindDirection,WindDirectionDegrees,WindSpeedMPH,WindSpeedGustMPH,Humidity,HourlyPrecipIn,Conditions,Clouds,dailyrainin,SoftwareType,DateUTC
2013-01-26 00:04:00,87.1,67.9,29.29,NNW,338,5.8,6.5,53,0.00,,,0.00,VWS V14.01,2013-01-25 14:04:00,
2013-01-26 00:09:00,87.1,67.9,29.29,SSW,202,3.1,3.6,53,0.00,,,0.00,VWS V14.01,2013-01-25 14:09:00,
2013-01-26 00:14:00,87.1,67.3,29.29,WSW,248,4.9,6.3,52,0.00,,,0.00,VWS V14.01,2013-01-25 14:14:00,
2013-01-26 00:19:00,87.1,67.3,29.29,WNW,292,1.6,2.9,52,0.00,,,0.00,VWS V14.01,2013-01-25 14:19:00,
2013-01-26 00:24:00,87.1,67.3,29.29,WNW,292,3.6,4.3,52,0.00,,,0.00,VWS V14.01,2013-01-25 14:24:00,
2013-01-26 00:29:00,87.3,67.5,29.26,West,270,4.9,4.9,52,0.00,,,0.00,VWS V14.01,2013-01-25 14:29:00,
2013-01-26 00:34:00,87.4,67.7,29.26,NNW,338,6.0,6.0,52,0.00,,,0.00,VWS V14.01,2013-01-25 14:34:00,
2013-01-26 00:39:00,87.4,67.7,29.26,NNE,22,8.1,8.1,52,0.00,,,0.00,VWS V14.01,2013-01-25 14:39:00,
2013-01-26 00:44:00,87.3,67.5,29.23,SE,135,7.8,7.8,52,0.00,,,0.00,VWS V14.01,2013-01-25 14:44:00,
2013-01-26 00:49:00,87.3,67.5,29.23,South,180,2.7,6.0,52,0.00,,,0.00,VWS V14.01,2013-01-25 14:49:00,
2013-01-26 00:54:00,87.1,67.3,29.23,East,90,3.4,3.4,52,0.00,,,0.00,VWS V14.01,2013-01-25 14:54:00,
2013-01-26 00:59:00,87.1,67.3,29.26,West,270,4.9,4.9,52,0.00,,,0.00,VWS V14.01,2013-01-25 14:59:00,
2013-01-26 01:04:00,87.1,67.3,29.26,SW,225,3.4,3.4,52,0.00,,,0.00,VWS V14.01,2013-01-25 15:04:00,
2013-01-26 01:09:00,87.1,67.3,29.26,NW,315,5.4,5.8,52,0.00,,,0.00,VWS V14.01,2013-01-25 15:09:00,
2013-01-26 01:14:00,87.1,67.9,29.23,NNW,338,3.1,3.1,53,0.00,,,0.00,VWS V14.01,2013-01-25 15:14:00,
2013-01-26 01:19:00,87.1,67.9,29.23,SW,225,8.5,8.5,53,0.00,,,0.00,VWS V14.01,2013-01-25 15:19:00,
2013-01-26 01:24:00,87.1,67.9,29.23,South,180,5.4,5.4,53,0.00,,,0.00,VWS V14.01,2013-01-25 15:24:00,
2013-01-26 01:29:00,87.1,67.9,29.23,NW,315,2.7,3.8,53,0.00,,,0.00,VWS V14.01,2013-01-25 15:29:00,
2013-01-26 01:34:00,87.1,67.9,29.23,WSW,248,3.4,7.8,53,0.00,,,0.00,VWS V14.01,2013-01-25 15:34:00,
2013-01-26 01:40:00,87.1,67.3,29.23,WNW,292,6.0,6.5,52,0.00,,,0.00,VWS V14.01,2013-01-25 15:40:00,
2013-01-26 01:45:00,87.3,67.5,29.23,NNE,22,5.6,6.9,52,0.00,,,0.00,VWS V14.01,2013-01-25 15:45:00,
2013-01-26 01:50:00,87.3,67.5,29.23,North,360,4.7,4.7,52,0.00,,,0.00,VWS V14.01,2013-01-25 15:50:00,
2013-01-26 01:55:00,87.1,66.8,29.23,SSW,202,4.3,6.3,51,0.00,,,0.00,VWS V14.01,2013-01-25 15:55:00,
2013-01-26 02:00:00,87.1,66.8,29.23,NW,315,3.6,3.6,51,0.00,,,0.00,VWS V14.01,2013-01-25 16:00:00,
2013-01-26 02:05:00,87.1,66.8,29.23,WNW,292,7.4,7.4,51,0.00,,,0.00,VWS V14.01,2013-01-25 16:05:00,
2013-01-26 02:10:00,87.1,66.8,29.23,WSW,248,4.7,4.7,51,0.00,,,0.00,VWS V14.01,2013-01-25 16:10:00,
2013-01-26 02:15:00,87.1,66.8,29.23,West,270,4.9,4.9,51,0.00,,,0.00,VWS V14.01,2013-01-25 16:15:00,
2013-01-26 02:20:00,87.1,66.8,29.23,West,270,6.0,6.0,51,0.00,,,0.00,VWS V14.01,2013-01-25 16:20:00,
2013-01-26 02:25:00,87.3,66.9,29.23,NNW,338,6.5,7.8,51,0.00,,,0.00,VWS V14.01,2013-01-25 16:25:00,
2013-01-26 02:30:00,87.3,66.4,29.23,East,90,2.9,12.5,50,0.00,,,0.00,VWS V14.01,2013-01-25 16:30:00,
2013-01-26 02:35:00,87.1,66.2,29.23,SW,225,6.5,6.5,50,0.00,,,0.00,VWS V14.01,2013-01-25 16:35:00,
2013-01-26 02:41:00,86.9,67.2,29.23,NNW,338,11.4,11.4,52,0.00,,,0.00,VWS V14.01,2013-01-25 16:41:00,
2013-01-26 02:46:00,86.9,67.2,29.23,NE,45,7.6,7.6,52,0.00,,,0.00,VWS V14.01,2013-01-25 16:46:00,
2013-01-26 02:51:00,87.1,67.3,29.23,WNW,292,2.5,13.2,52,0.00,,,0.00,VWS V14.01,2013-01-25 16:51:00,
2013-01-26 02:56:00,87.1,67.3,29.23,WSW,248,2.9,6.0,52,0.00,,,0.00,VWS V14.01,2013-01-25 16:56:00,
2013-01-26 03:01:00,87.1,67.3,29.23,WNW,292,4.9,5.4,52,0.00,,,0.00,VWS V14.01,2013-01-25 17:01:00,
2013-01-26 03:06:00,87.1,67.3,29.23,SSW,202,3.4,3.6,52,0.00,,,0.00,VWS V14.01,2013-01-25 17:06:00,
2013-01-26 03:11:00,87.1,67.3,29.23,ESE,112,6.3,6.3,52,0.00,,,0.00,VWS V14.01,2013-01-25 17:11:00,
2013-01-26 03:16:00,87.1,67.3,29.26,SSE,158,7.2,7.2,52,0.00,,,0.00,VWS V14.01,2013-01-25 17:16:00,
2013-01-26 03:21:00,86.9,67.2,29.26,ENE,68,2.7,3.6,52,0.00,,,0.00,VWS V14.01,2013-01-25 17:21:00,
2013-01-26 03:26:00,86.2,67.1,29.26,SE,135,6.0,6.0,53,0.00,,,0.00,VWS V14.01,2013-01-25 17:26:00,
2013-01-26 03:31:00,85.5,67.5,29.26,NW,315,1.1,1.1,55,0.00,,,0.00,VWS V14.01,2013-01-25 17:31:00,
2013-01-26 03:36:00,85.8,67.3,29.26,East,90,2.7,3.8,54,0.00,,,0.00,VWS V14.01,2013-01-25 17:36:00,
2013-01-26 03:41:00,86.4,67.2,29.26,SW,225,2.2,2.7,53,0.00,,,0.00,VWS V14.01,2013-01-25 17:41:00,
2013-01-26 03:46:00,86.2,67.1,29.26,SW,225,3.6,3.6,53,0.00,,,0.00,VWS V14.01,2013-01-25 17:46:00,
2013-01-26 03:51:00,86.2,67.1,29.26,South,180,3.1,6.9,53,0.00,,,0.00,VWS V14.01,2013-01-25 17:51:00,
2013-01-26 03:56:00,86.2,67.1,29.26,South,180,5.6,5.6,53,0.00,,,0.00,VWS V14.01,2013-01-25 17:56:00,
2013-01-26 04:01:00,86.2,67.6,29.23,SSE,158,3.4,3.4,54,0.00,,,0.00,VWS V14.01,2013-01-25 18:01:00,
2013-01-26 04:06:00,86.2,67.1,29.23,West,270,2.9,5.6,53,0.00,,,0.00,VWS V14.01,2013-01-25 18:06:00,
2013-01-26 04:12:00,86.5,67.4,29.23,South,180,6.0,6.0,53,0.00,,,0.00,VWS V14.01,2013-01-25 18:12:00,
2013-01-26 04:17:00,86.5,67.4,29.23,West,270,5.4,5.4,53,0.00,,,0.00,VWS V14.01,2013-01-25 18:17:00,
2013-01-26 04:22:00,86.4,67.2,29.23,WNW,292,3.6,5.8,53,0.00,,,0.00,VWS V14.01,2013-01-25 18:22:00,
2013-01-26 04:27:00,86.5,67.4,29.23,NW,315,7.6,7.6,53,0.00,,,0.00,VWS V14.01,2013-01-25 18:27:00,
2013-01-26 04:32:00,86.7,67.6,29.23,NNW,338,6.0,6.0,53,0.00,,,0.00,VWS V14.01,2013-01-25 18:32:00,
2013-01-26 04:37:00,86.7,67.6,29.23,West,270,8.7,10.5,53,0.00,,,0.00,VWS V14.01,2013-01-25 18:37:00,
2013-01-26 04:42:00,86.7,68.1,29.23,WNW,292,9.8,9.8,54,0.00,,,0.00,VWS V14.01,2013-01-25 18:42:00,
2013-01-26 04:47:00,86.7,67.6,29.23,WNW,292,5.6,5.6,53,0.00,,,0.00,VWS V14.01,2013-01-25 18:47:00,
2013-01-26 04:52:00,86.7,68.1,29.23,WSW,248,5.6,7.6,54,0.00,,,0.00,VWS V14.01,2013-01-25 18:52:00,
2013-01-26 04:57:00,86.7,68.6,29.23,East,90,7.8,7.8,55,0.00,,,0.00,VWS V14.01,2013-01-25 18:57:00,
2013-01-26 05:02:00,86.9,68.8,29.26,SSW,202,9.8,9.8,55,0.00,,,0.00,VWS V14.01,2013-01-25 19:02:00,
2013-01-26 05:07:00,86.9,69.3,29.26,NNW,338,8.7,8.7,56,0.00,,,0.00,VWS V14.01,2013-01-25 19:07:00,
2013-01-26 05:12:00,86.7,69.2,29.26,SE,135,5.8,5.8,56,0.00,,,0.00,VWS V14.01,2013-01-25 19:12:00,
2013-01-26 05:17:00,86.5,69.5,29.26,WSW,248,6.0,6.0,57,0.00,,,0.00,VWS V14.01,2013-01-25 19:17:00,
2013-01-26 05:22:00,86.4,69.3,29.26,WNW,292,5.4,6.7,57,0.00,,,0.00,VWS V14.01,2013-01-25 19:22:00,
2013-01-26 05:27:00,86.2,69.7,29.26,SSW,202,5.8,7.4,58,0.00,,,0.00,VWS V14.01,2013-01-25 19:27:00,
2013-01-26 05:32:00,86.2,70.2,29.26,East,90,3.6,3.6,59,0.00,,,0.00,VWS V14.01,2013-01-25 19:32:00,
2013-01-26 05:37:00,85.3,71.3,29.26,NW,315,13.2,13.2,63,0.00,,,0.00,VWS V14.01,2013-01-25 19:37:00,
2013-01-26 05:42:00,84.2,71.2,29.26,WNW,292,6.3,6.3,65,0.00,,,0.00,VWS V14.01,2013-01-25 19:42:00,
2013-01-26 05:48:00,84.7,71.2,29.26,SSW,202,11.9,11.9,64,0.00,,,0.00,VWS V14.01,2013-01-25 19:48:00,
2013-01-26 05:53:00,84.9,70.9,29.26,WSW,248,5.4,7.6,63,0.00,,,0.00,VWS V14.01,2013-01-25 19:53:00,
2013-01-26 05:58:00,85.3,71.3,29.26,WNW,292,3.8,6.3,63,0.00,,,0.00,VWS V14.01,2013-01-25 19:58:00,
2013-01-26 06:03:00,85.3,71.3,29.26,WNW,292,3.4,4.3,63,0.00,,,0.00,VWS V14.01,2013-01-25 20:03:00,
2013-01-26 06:08:00,85.5,70.5,29.26,NW,315,6.3,7.8,61,0.00,,,0.00,VWS V14.01,2013-01-25 20:08:00,
2013-01-26 06:13:00,85.6,70.2,29.26,SSW,202,4.3,4.3,60,0.00,,,0.00,VWS V14.01,2013-01-25 20:13:00,
2013-01-26 06:18:00,85.5,69.0,29.26,West,270,10.7,10.7,58,0.00,,,0.00,VWS V14.01,2013-01-25 20:18:00,
2013-01-26 06:23:00,85.6,68.7,29.26,NNW,338,8.1,8.1,57,0.00,,,0.00,VWS V14.01,2013-01-25 20:23:00,
2013-01-26 06:28:00,85.6,68.7,29.26,NW,315,9.8,9.8,57,0.00,,,0.00,VWS V14.01,2013-01-25 20:28:00,
2013-01-26 06:33:00,85.8,68.3,29.29,South,180,4.7,4.7,56,0.00,,,0.00,VWS V14.01,2013-01-25 20:33:00,
2013-01-26 06:38:00,86.2,68.1,29.29,SSE,158,7.8,7.8,55,0.00,,,0.00,VWS V14.01,2013-01-25 20:38:00,
2013-01-26 06:43:00,86.0,68.5,29.29,WNW,292,8.5,8.5,56,0.00,,,0.00,VWS V14.01,2013-01-25 20:43:00,
2013-01-26 06:48:00,86.4,70.3,29.29,SSW,202,3.8,3.8,59,0.00,,,0.00,VWS V14.01,2013-01-25 20:48:00,
2013-01-26 06:53:00,86.7,71.7,29.29,WNW,292,7.4,7.4,61,0.00,,,0.00,VWS V14.01,2013-01-25 20:53:00,
2013-01-26 06:58:00,86.5,71.5,29.26,WNW,292,5.6,8.1,61,0.00,,,0.00,VWS V14.01,2013-01-25 20:58:00,
2013-01-26 07:03:00,86.4,70.8,29.26,NW,315,7.4,7.6,60,0.00,,,0.00,VWS V14.01,2013-01-25 21:03:00,
2013-01-26 07:08:00,86.2,71.2,29.26,East,90,0.0,0.0,61,0.00,,,0.00,VWS V14.01,2013-01-25 21:08:00,
2013-01-26 07:13:00,86.2,71.6,29.29,NNW,338,4.0,4.0,62,0.00,,,0.00,VWS V14.01,2013-01-25 21:13:00,
2013-01-26 07:19:00,86.2,71.6,29.29,SSW,202,23.0,23.0,62,0.00,,,0.00,VWS V14.01,2013-01-25 21:19:00,
2013-01-26 07:24:00,86.0,71.5,29.29,SW,225,15.4,23.0,62,0.00,,,0.00,VWS V14.01,2013-01-25 21:24:00,
2013-01-26 07:29:00,86.0,71.9,29.32,WNW,292,28.0,28.0,63,0.00,,,0.00,VWS V14.01,2013-01-25 21:29:00,
2013-01-26 07:34:00,85.8,71.8,29.32,WNW,292,24.2,24.2,63,0.00,,,0.00,VWS V14.01,2013-01-25 21:34:00,
2013-01-26 07:39:00,85.6,71.6,29.32,South,180,8.5,12.8,63,0.00,,,0.00,VWS V14.01,2013-01-25 21:39:00,
2013-01-26 07:44:00,85.5,71.4,29.32,WNW,292,13.2,13.2,63,0.00,,,0.00,VWS V14.01,2013-01-25 21:44:00,
2013-01-26 07:49:00,85.6,71.6,29.32,SW,225,12.5,12.5,63,0.00,,,0.00,VWS V14.01,2013-01-25 21:49:00,
2013-01-26 07:54:00,85.6,72.1,29.32,WSW,248,7.6,7.6,64,0.00,,,0.00,VWS V14.01,2013-01-25 21:54:00,
2013-01-26 07:59:00,85.3,71.7,29.32,SSW,202,10.3,25.3,64,0.00,,,0.00,VWS V14.01,2013-01-25 21:59:00,
2013-01-26 08:04:00,85.1,71.6,29.32,SW,225,25.5,25.5,64,0.00,,,0.00,VWS V14.01,2013-01-25 22:04:00,
2013-01-26 08:09:00,84.9,71.4,29.32,WNW,292,10.5,10.5,64,0.00,,,0.00,VWS V14.01,2013-01-25 22:09:00,
2013-01-26 08:14:00,85.1,71.6,29.32,WNW,292,6.5,9.0,64,0.00,,,0.00,VWS V14.01,2013-01-25 22:14:00,
2013-01-26 08:19:00,85.1,71.6,29.32,SW,225,10.7,10.7,64,0.00,,,0.00,VWS V14.01,2013-01-25 22:19:00,
2013-01-26 08:24:00,85.1,71.6,29.32,SW,225,10.3,10.3,64,0.00,,,0.00,VWS V14.01,2013-01-25 22:24:00,
2013-01-26 08:29:00,85.5,71.4,29.35,South,180,4.7,4.7,63,0.00,,,0.00,VWS V14.01,2013-01-25 22:29:00,
2013-01-26 08:34:00,85.6,71.6,29.35,SSW,202,0.0,4.3,63,0.00,,,0.00,VWS V14.01,2013-01-25 22:34:00,
2013-01-26 08:39:00,85.8,71.3,29.35,SSE,158,7.8,7.8,62,0.00,,,0.00,VWS V14.01,2013-01-25 22:39:00,
2013-01-26 08:44:00,86.0,71.0,29.35,WNW,292,5.8,12.8,61,0.00,,,0.00,VWS V14.01,2013-01-25 22:44:00,
2013-01-26 08:49:00,86.0,71.0,29.35,SSW,202,10.1,10.1,61,0.00,,,0.00,VWS V14.01,2013-01-25 22:49:00,
2013-01-26 08:54:00,86.0,71.5,29.35,SE,135,3.4,4.9,62,0.00,,,0.00,VWS V14.01,2013-01-25 22:54:00,
2013-01-26 09:00:00,86.0,71.0,29.35,SSW,202,14.8,14.8,61,0.00,,,0.00,VWS V14.01,2013-01-25 23:00:00,
2013-01-26 09:05:00,86.0,71.0,29.35,SE,135,7.6,7.6,61,0.00,,,0.00,VWS V14.01,2013-01-25 23:05:00,
2013-01-26 09:10:00,85.8,71.3,29.35,SE,135,13.2,13.2,62,0.00,,,0.00,VWS V14.01,2013-01-25 23:10:00,
2013-01-26 09:15:00,85.6,71.1,29.35,South,180,9.6,15.4,62,0.00,,,0.00,VWS V14.01,2013-01-25 23:15:00,
2013-01-26 09:20:00,85.6,71.1,29.35,SSW,202,9.8,9.8,62,0.00,,,0.00,VWS V14.01,2013-01-25 23:20:00,
2013-01-26 09:25:00,85.5,71.4,29.35,South,180,4.9,4.9,63,0.00,,,0.00,VWS V14.01,2013-01-25 23:25:00,
2013-01-26 09:30:00,85.5,71.4,29.35,South,180,4.9,5.8,63,0.00,,,0.00,VWS V14.01,2013-01-25 23:30:00,
2013-01-26 09:35:00,85.3,71.3,29.35,ESE,112,2.0,2.0,63,0.00,,,0.00,VWS V14.01,2013-01-25 23:35:00,
2013-01-26 09:40:00,85.5,71.4,29.35,WSW,248,7.2,7.2,63,0.00,,,0.00,VWS V14.01,2013-01-25 23:40:00,
2013-01-26 09:45:00,85.5,71.4,29.35,SW,225,2.2,6.0,63,0.00,,,0.00,VWS V14.01,2013-01-25 23:45:00,
2013-01-26 09:50:00,85.5,71.4,29.35,West,270,3.8,3.8,63,0.00,,,0.00,VWS V14.01,2013-01-25 23:50:00,
2013-01-26 09:55:00,85.6,71.1,29.35,East,90,2.0,5.6,62,0.00,,,0.00,VWS V14.01,2013-01-25 23:55:00,
2013-01-26 10:00:00,85.5,71.4,29.35,NNW,338,2.0,4.3,63,0.00,,,0.00,VWS V14.01,2013-01-26 00:00:00,
2013-01-26 10:05:00,85.1,71.1,29.35,NNW,338,1.3,1.3,63,0.00,,,0.00,VWS V14.01,2013-01-26 00:05:00,
2013-01-26 10:10:00,84.9,71.4,29.35,NE,45,0.0,3.8,64,0.00,,,0.00,VWS V14.01,2013-01-26 00:10:00,
2013-01-26 10:15:00,84.7,71.2,29.35,SE,135,2.5,2.9,64,0.00,,,0.00,VWS V14.01,2013-01-26 00:15:00,
2013-01-26 10:20:00,84.9,71.8,29.35,SSE,158,0.9,0.9,65,0.00,,,0.00,VWS V14.01,2013-01-26 00:20:00,
2013-01-26 10:25:00,84.7,71.7,29.35,WSW,248,1.3,1.3,65,0.00,,,0.00,VWS V14.01,2013-01-26 00:25:00,
2013-01-26 10:30:00,84.7,71.7,29.32,North,360,4.3,4.3,65,0.00,,,0.00,VWS V14.01,2013-01-26 00:30:00,
2013-01-26 10:35:00,85.1,72.0,29.32,ENE,68,2.9,2.9,65,0.00,,,0.00,VWS V14.01,2013-01-26 00:35:00,
2013-01-26 10:40:00,85.1,72.5,29.32,ENE,68,0.0,4.0,66,0.00,,,0.00,VWS V14.01,2013-01-26 00:40:00,
2013-01-26 10:46:00,85.3,72.2,29.32,SE,135,1.6,1.6,65,0.00,,,0.00,VWS V14.01,2013-01-26 00:46:00,
2013-01-26 10:51:00,85.3,72.2,29.32,SE,135,0.0,1.6,65,0.00,,,0.00,VWS V14.01,2013-01-26 00:51:00,
2013-01-26 10:56:00,85.6,72.5,29.32,SSE,158,2.7,2.7,65,0.00,,,0.00,VWS V14.01,2013-01-26 00:56:00,
2013-01-26 11:01:00,85.8,72.7,29.32,South,180,0.0,0.0,65,0.00,,,0.00,VWS V14.01,2013-01-26 01:01:00,
2013-01-26 11:06:00,86.4,73.2,29.32,South,180,4.7,4.7,65,0.00,,,0.00,VWS V14.01,2013-01-26 01:06:00,
2013-01-26 11:11:00,87.3,74.1,29.32,NNE,22,1.6,3.4,65,0.00,,,0.00,VWS V14.01,2013-01-26 01:11:00,
2013-01-26 11:16:00,88.2,74.9,29.29,North,360,4.9,5.4,65,0.00,,,0.00,VWS V14.01,2013-01-26 01:16:00,
2013-01-26 11:21:00,88.7,75.0,29.29,North,360,1.1,2.2,64,0.00,,,0.00,VWS V14.01,2013-01-26 01:21:00,
2013-01-26 11:26:00,89.1,75.3,29.29,NE,45,3.1,3.1,64,0.00,,,0.00,VWS V14.01,2013-01-26 01:26:00,
2013-01-26 11:31:00,88.7,74.5,29.29,ENE,68,2.9,4.0,63,0.00,,,0.00,VWS V14.01,2013-01-26 01:31:00,
2013-01-26 11:36:00,88.5,73.8,29.29,NNW,338,4.0,4.0,62,0.00,,,0.00,VWS V14.01,2013-01-26 01:36:00,
2013-01-26 11:41:00,88.7,73.5,29.29,North,360,4.9,4.9,61,0.00,,,0.00,VWS V14.01,2013-01-26 01:41:00,
2013-01-26 11:46:00,88.9,73.7,29.29,SE,135,1.6,1.6,61,0.00,,,0.00,VWS V14.01,2013-01-26 01:46:00,
2013-01-26 11:51:00,90.0,74.7,29.29,South,180,5.4,5.4,61,0.00,,,0.00,VWS V14.01,2013-01-26 01:51:00,
2013-01-26 11:56:00,90.5,75.2,29.29,ENE,68,3.1,3.1,61,0.00,,,0.00,VWS V14.01,2013-01-26 01:56:00,
2013-01-26 12:01:00,90.3,75.1,29.26,SE,135,3.1,3.1,61,0.00,,,0.00,VWS V14.01,2013-01-26 02:01:00,
2013-01-26 12:06:00,90.7,75.9,29.26,NE,45,4.0,4.0,62,0.00,,,0.00,VWS V14.01,2013-01-26 02:06:00,
2013-01-26 12:11:00,91.0,75.7,29.26,NE,45,5.4,5.4,61,0.00,,,0.00,VWS V14.01,2013-01-26 02:11:00,
2013-01-26 12:16:00,91.0,75.7,29.23,NE,45,0.0,2.9,61,0.00,,,0.00,VWS V14.01,2013-01-26 02:16:00,
2013-01-26 12:21:00,91.4,76.6,29.23,NE,45,3.4,3.4,62,0.00,,,0.00,VWS V14.01,2013-01-26 02:21:00,
2013-01-26 12:27:00,91.8,75.9,29.23,NE,45,2.9,3.1,60,0.00,,,0.00,VWS V14.01,2013-01-26 02:27:00,
2013-01-26 12:32:00,92.1,76.2,29.23,ESE,112,4.9,4.9,60,0.00,,,0.00,VWS V14.01,2013-01-26 02:32:00,
2013-01-26 12:37:00,92.1,75.2,29.23,NNW,338,2.0,3.4,58,0.00,,,0.00,VWS V14.01,2013-01-26 02:37:00,
2013-01-26 12:42:00,92.7,75.7,29.23,NNW,338,4.7,4.7,58,0.00,,,0.00,VWS V14.01,2013-01-26 02:42:00,
2013-01-26 12:47:00,92.8,75.4,29.23,NW,315,1.6,1.6,57,0.00,,,0.00,VWS V14.01,2013-01-26 02:47:00,
2013-01-26 12:52:00,93.4,75.9,29.23,NNW,338,4.3,4.3,57,0.00,,,0.00,VWS V14.01,2013-01-26 02:52:00,
2013-01-26 12:57:00,93.4,75.3,29.23,NW,315,4.0,4.0,56,0.00,,,0.00,VWS V14.01,2013-01-26 02:57:00,
2013-01-26 13:02:00,93.7,75.1,29.23,East,90,6.7,9.8,55,0.00,,,0.00,VWS V14.01,2013-01-26 03:02:00,
2013-01-26 13:07:00,94.3,75.6,29.23,West,270,8.7,8.7,55,0.00,,,0.00,VWS V14.01,2013-01-26 03:07:00,
2013-01-26 13:12:00,94.6,75.4,29.23,NW,315,3.6,3.6,54,0.00,,,0.00,VWS V14.01,2013-01-26 03:12:00,
2013-01-26 13:17:00,95.7,75.9,29.23,SSW,202,5.6,5.8,53,0.00,,,0.00,VWS V14.01,2013-01-26 03:17:00,
2013-01-26 13:22:00,95.2,75.4,29.23,NW,315,2.5,2.5,53,0.00,,,0.00,VWS V14.01,2013-01-26 03:22:00,
2013-01-26 13:27:00,95.4,75.5,29.23,WSW,248,12.8,12.8,53,0.00,,,0.00,VWS V14.01,2013-01-26 03:27:00,
2013-01-26 13:32:00,95.5,74.5,29.23,WSW,248,8.7,8.7,51,0.00,,,0.00,VWS V14.01,2013-01-26 03:32:00,
2013-01-26 13:37:00,95.4,73.8,29.23,WNW,292,2.0,2.0,50,0.00,,,0.00,VWS V14.01,2013-01-26 03:37:00,
2013-01-26 13:42:00,95.7,74.7,29.23,West,270,8.5,8.5,51,0.00,,,0.00,VWS V14.01,2013-01-26 03:42:00,
2013-01-26 13:47:00,95.9,73.7,29.20,WNW,292,0.9,0.9,49,0.00,,,0.00,VWS V14.01,2013-01-26 03:47:00,
2013-01-26 13:53:00,96.1,73.8,29.20,NW,315,8.1,8.1,49,0.00,,,0.00,VWS V14.01,2013-01-26 03:53:00,
2013-01-26 13:58:00,96.3,74.0,29.20,WNW,292,2.5,5.6,49,0.00,,,0.00,VWS V14.01,2013-01-26 03:58:00,
2013-01-26 14:03:00,96.3,74.0,29.20,NW,315,4.3,4.3,49,0.00,,,0.00,VWS V14.01,2013-01-26 04:03:00,
2013-01-26 14:08:00,96.4,74.2,29.20,East,90,3.8,3.8,49,0.00,,,0.00,VWS V14.01,2013-01-26 04:08:00,
2013-01-26 14:13:00,97.0,74.7,29.20,WSW,248,10.3,10.3,49,0.00,,,0.00,VWS V14.01,2013-01-26 04:13:00,
2013-01-26 14:18:00,97.3,74.4,29.20,South,180,2.7,13.2,48,0.00,,,0.00,VWS V14.01,2013-01-26 04:18:00,
2013-01-26 14:23:00,97.3,74.4,29.20,West,270,3.8,3.8,48,0.00,,,0.00,VWS V14.01,2013-01-26 04:23:00,
2013-01-26 14:28:00,97.5,73.3,29.20,SW,225,5.6,8.7,46,0.00,,,0.00,VWS V14.01,2013-01-26 04:28:00,
2013-01-26 14:33:00,97.7,73.4,29.20,SSW,202,3.8,7.6,46,0.00,,,0.00,VWS V14.01,2013-01-26 04:33:00,
2013-01-26 14:38:00,97.0,72.8,29.20,SSW,202,6.0,9.8,46,0.00,,,0.00,VWS V14.01,2013-01-26 04:38:00,
2013-01-26 14:43:00,96.8,73.9,29.20,West,270,3.4,3.4,48,0.00,,,0.00,VWS V14.01,2013-01-26 04:43:00,
2013-01-26 14:48:00,96.4,73.6,29.20,WSW,248,1.1,1.1,48,0.00,,,0.00,VWS V14.01,2013-01-26 04:48:00,
2013-01-26 14:53:00,96.1,73.2,29.20,SW,225,3.8,3.8,48,0.00,,,0.00,VWS V14.01,2013-01-26 04:53:00,
2013-01-26 14:58:00,95.9,73.1,29.20,South,180,0.9,0.9,48,0.00,,,0.00,VWS V14.01,2013-01-26 04:58:00,
2013-01-26 15:00:00,95.9,73.1,29.20,West,270,0.0,0.0,48,0.00,,,0.00,VWS V14.01,2013-01-26 05:00:00,
2013-01-26 15:02:00,95.7,72.9,29.20,SSE,158,0.0,3.4,48,0.00,,,0.00,VWS V14.01,2013-01-26 05:02:00,
2013-01-26 15:05:00,95.9,73.1,29.20,South,180,2.7,4.9,48,0.00,,,0.00,VWS V14.01,2013-01-26 05:05:00,
2013-01-26 15:11:00,95.5,72.7,29.20,North,360,0.9,2.7,48,0.00,,,0.00,VWS V14.01,2013-01-26 05:11:00,
2013-01-26 15:16:00,95.4,72.6,29.20,ENE,68,0.0,2.0,48,0.00,,,0.00,VWS V14.01,2013-01-26 05:16:00,
2013-01-26 15:21:00,95.2,72.4,29.20,SE,135,0.0,0.9,48,0.00,,,0.00,VWS V14.01,2013-01-26 05:21:00,
2013-01-26 15:26:00,95.2,72.4,29.20,North,360,1.3,1.3,48,0.00,,,0.00,VWS V14.01,2013-01-26 05:26:00,
2013-01-26 15:31:00,95.2,72.4,29.20,NNW,338,0.9,1.3,48,0.00,,,0.00,VWS V14.01,2013-01-26 05:31:00,
2013-01-26 15:36:00,94.6,76.0,29.20,NNW,338,4.0,4.9,55,0.00,,,0.00,VWS V14.01,2013-01-26 05:36:00,
2013-01-26 15:41:00,94.3,76.2,29.20,SE,135,6.3,6.3,56,0.00,,,0.00,VWS V14.01,2013-01-26 05:41:00,
2013-01-26 15:46:00,94.1,76.6,29.20,ESE,112,2.5,2.5,57,0.00,,,0.00,VWS V14.01,2013-01-26 05:46:00,
2013-01-26 15:51:00,93.9,76.9,29.20,NNE,22,0.0,1.3,58,0.00,,,0.00,VWS V14.01,2013-01-26 05:51:00,
2013-01-26 15:56:00,93.6,77.1,29.20,NE,45,0.0,0.0,59,0.00,,,0.00,VWS V14.01,2013-01-26 05:56:00,
2013-01-26 16:01:00,93.9,77.9,29.20,East,90,0.0,2.0,60,0.00,,,0.00,VWS V14.01,2013-01-26 06:01:00,
2013-01-26 16:06:00,94.3,77.8,29.20,NNE,22,2.9,2.9,59,0.00,,,0.00,VWS V14.01,2013-01-26 06:06:00,
2013-01-26 16:11:00,94.1,78.1,29.20,North,360,0.0,0.0,60,0.00,,,0.00,VWS V14.01,2013-01-26 06:11:00,
2013-01-26 16:16:00,93.9,78.4,29.20,ENE,68,3.4,3.4,61,0.00,,,0.00,VWS V14.01,2013-01-26 06:16:00,
2013-01-26 16:21:00,93.9,77.9,29.20,NNE,22,5.4,5.4,60,0.00,,,0.00,VWS V14.01,2013-01-26 06:21:00,
2013-01-26 16:26:00,93.4,77.4,29.20,NE,45,2.0,3.6,60,0.00,,,0.00,VWS V14.01,2013-01-26 06:26:00,
2013-01-26 16:32:00,93.0,77.6,29.20,North,360,1.6,1.6,61,0.00,,,0.00,VWS V14.01,2013-01-26 06:32:00,
2013-01-26 16:37:00,92.8,77.4,29.20,NNE,22,2.5,3.6,61,0.00,,,0.00,VWS V14.01,2013-01-26 06:37:00,
2013-01-26 16:42:00,92.5,77.1,29.20,NNE,22,3.4,3.4,61,0.00,,,0.00,VWS V14.01,2013-01-26 06:42:00,
2013-01-26 16:47:00,92.3,76.9,29.20,SSE,158,2.0,2.0,61,0.00,,,0.00,VWS V14.01,2013-01-26 06:47:00,
2013-01-26 16:52:00,92.3,77.4,29.20,NE,45,4.9,4.9,62,0.00,,,0.00,VWS V14.01,2013-01-26 06:52:00,
2013-01-26 16:57:00,92.1,75.7,29.20,North,360,0.0,0.0,59,0.00,,,0.00,VWS V14.01,2013-01-26 06:57:00,
2013-01-26 17:02:00,92.3,75.4,29.20,SSW,202,5.8,5.8,58,0.00,,,0.00,VWS V14.01,2013-01-26 07:02:00,
2013-01-26 17:07:00,92.3,74.3,29.20,West,270,4.3,4.3,56,0.00,,,0.00,VWS V14.01,2013-01-26 07:07:00,
2013-01-26 17:12:00,92.5,74.5,29.20,SSW,202,3.8,3.8,56,0.00,,,0.00,VWS V14.01,2013-01-26 07:12:00,
2013-01-26 17:17:00,92.7,74.1,29.20,West,270,0.9,0.9,55,0.00,,,0.00,VWS V14.01,2013-01-26 07:17:00,
2013-01-26 17:22:00,92.7,74.1,29.20,North,360,1.3,1.3,55,0.00,,,0.00,VWS V14.01,2013-01-26 07:22:00,
2013-01-26 17:27:00,93.2,74.1,29.20,NNE,22,4.3,4.3,54,0.00,,,0.00,VWS V14.01,2013-01-26 07:27:00,
2013-01-26 17:32:00,93.4,74.3,29.20,NW,315,0.0,0.0,54,0.00,,,0.00,VWS V14.01,2013-01-26 07:32:00,
2013-01-26 17:37:00,93.2,74.1,29.20,ENE,68,0.0,0.0,54,0.00,,,0.00,VWS V14.01,2013-01-26 07:37:00,
2013-01-26 17:42:00,93.0,74.5,29.20,NE,45,2.2,2.7,55,0.00,,,0.00,VWS V14.01,2013-01-26 07:42:00,
2013-01-26 17:47:00,92.8,74.3,29.20,NE,45,5.6,5.6,55,0.00,,,0.00,VWS V14.01,2013-01-26 07:47:00,
2013-01-26 17:52:00,92.5,74.0,29.20,NE,45,0.0,2.9,55,0.00,,,0.00,VWS V14.01,2013-01-26 07:52:00,
2013-01-26 17:57:00,92.5,74.0,29.20,East,90,0.0,2.0,55,0.00,,,0.00,VWS V14.01,2013-01-26 07:57:00,
2013-01-26 18:02:00,92.3,73.8,29.20,North,360,0.9,3.4,55,0.00,,,0.00,VWS V14.01,2013-01-26 08:02:00,
2013-01-26 18:07:00,92.3,73.8,29.20,NW,315,0.0,0.0,55,0.00,,,0.00,VWS V14.01,2013-01-26 08:07:00,
2013-01-26 18:13:00,92.3,73.8,29.20,NW,315,0.0,0.0,55,0.00,,,0.00,VWS V14.01,2013-01-26 08:13:00,
2013-01-26 18:18:00,91.6,74.2,29.20,North,360,0.0,0.0,57,0.00,,,0.00,VWS V14.01,2013-01-26 08:18:00,
2013-01-26 18:23:00,91.6,74.2,29.20,North,360,0.0,0.0,57,0.00,,,0.00,VWS V14.01,2013-01-26 08:23:00,
2013-01-26 18:28:00,91.4,74.6,29.23,NNW,338,0.9,2.5,58,0.00,,,0.00,VWS V14.01,2013-01-26 08:28:00,
2013-01-26 18:33:00,91.2,74.9,29.23,NW,315,4.3,4.3,59,0.00,,,0.00,VWS V14.01,2013-01-26 08:33:00,
2013-01-26 18:38:00,90.7,75.4,29.23,North,360,2.9,2.9,61,0.00,,,0.00,VWS V14.01,2013-01-26 08:38:00,
2013-01-26 18:43:00,90.7,75.4,29.23,WNW,292,7.2,7.2,61,0.00,,,0.00,VWS V14.01,2013-01-26 08:43:00,
2013-01-26 18:48:00,91.2,73.9,29.23,NNE,22,4.3,4.3,57,0.00,,,0.00,VWS V14.01,2013-01-26 08:48:00,
2013-01-26 18:53:00,91.6,73.1,29.23,NNW,338,5.4,5.4,55,0.00,,,0.00,VWS V14.01,2013-01-26 08:53:00,
2013-01-26 18:58:00,91.6,73.1,29.23,South,180,3.1,3.1,55,0.00,,,0.00,VWS V14.01,2013-01-26 08:58:00,
2013-01-26 19:03:00,91.2,73.3,29.23,NNE,22,0.0,1.6,56,0.00,,,0.00,VWS V14.01,2013-01-26 09:03:00,
2013-01-26 19:08:00,91.2,72.8,29.23,NW,315,7.6,7.6,55,0.00,,,0.00,VWS V14.01,2013-01-26 09:08:00,
2013-01-26 19:13:00,91.4,72.4,29.23,SW,225,3.4,3.4,54,0.00,,,0.00,VWS V14.01,2013-01-26 09:13:00,
2013-01-26 19:18:00,91.6,72.0,29.23,WNW,292,4.3,5.4,53,0.00,,,0.00,VWS V14.01,2013-01-26 09:18:00,
2013-01-26 19:23:00,91.4,72.4,29.23,NW,315,6.0,6.0,54,0.00,,,0.00,VWS V14.01,2013-01-26 09:23:00,
2013-01-26 19:28:00,91.4,71.9,29.23,WNW,292,3.6,15.4,53,0.00,,,0.00,VWS V14.01,2013-01-26 09:28:00,
2013-01-26 19:33:00,90.9,72.5,29.23,SSE,158,1.3,6.3,55,0.00,,,0.00,VWS V14.01,2013-01-26 09:33:00,
2013-01-26 19:38:00,91.0,72.6,29.23,WNW,292,3.4,3.4,55,0.00,,,0.00,VWS V14.01,2013-01-26 09:38:00,
2013-01-26 19:44:00,91.0,72.6,29.26,SW,225,3.4,3.4,55,0.00,,,0.00,VWS V14.01,2013-01-26 09:44:00,
2013-01-26 19:49:00,91.0,72.6,29.26,SSE,158,4.3,4.7,55,0.00,,,0.00,VWS V14.01,2013-01-26 09:49:00,
2013-01-26 19:54:00,91.0,72.6,29.26,SW,225,6.0,10.7,55,0.00,,,0.00,VWS V14.01,2013-01-26 09:54:00,
2013-01-26 19:59:00,90.9,72.5,29.26,SSW,202,8.7,8.7,55,0.00,,,0.00,VWS V14.01,2013-01-26 09:59:00,
2013-01-26 20:04:00,90.9,72.5,29.26,NNW,338,7.8,7.8,55,0.00,,,0.00,VWS V14.01,2013-01-26 10:04:00,
2013-01-26 20:09:00,90.9,72.5,29.26,SE,135,3.4,7.4,55,0.00,,,0.00,VWS V14.01,2013-01-26 10:09:00,
2013-01-26 20:14:00,90.7,72.8,29.26,SW,225,4.0,4.0,56,0.00,,,0.00,VWS V14.01,2013-01-26 10:14:00,
2013-01-26 20:19:00,90.7,72.8,29.26,SSE,158,7.4,7.4,56,0.00,,,0.00,VWS V14.01,2013-01-26 10:19:00,
2013-01-26 20:24:00,90.7,72.3,29.26,NNW,338,3.4,3.4,55,0.00,,,0.00,VWS V14.01,2013-01-26 10:24:00,
2013-01-26 20:29:00,90.7,72.3,29.26,East,90,6.3,6.3,55,0.00,,,0.00,VWS V14.01,2013-01-26 10:29:00,
2013-01-26 20:34:00,90.5,72.7,29.26,East,90,2.7,2.9,56,0.00,,,0.00,VWS V14.01,2013-01-26 10:34:00,
2013-01-26 20:39:00,90.0,72.2,29.26,NE,45,3.8,3.8,56,0.00,,,0.00,VWS V14.01,2013-01-26 10:39:00,
2013-01-26 20:44:00,90.0,72.2,29.29,SSW,202,0.0,2.5,56,0.00,,,0.00,VWS V14.01,2013-01-26 10:44:00,
2013-01-26 20:49:00,89.8,72.5,29.29,NE,45,0.9,0.9,57,0.00,,,0.00,VWS V14.01,2013-01-26 10:49:00,
2013-01-26 20:54:00,89.8,72.5,29.29,SW,225,3.6,3.8,57,0.00,,,0.00,VWS V14.01,2013-01-26 10:54:00,
2013-01-26 20:59:00,89.6,72.4,29.29,ENE,68,1.6,4.9,57,0.00,,,0.00,VWS V14.01,2013-01-26 10:59:00,
2013-01-26 21:04:00,89.6,72.4,29.29,ESE,112,0.0,0.0,57,0.00,,,0.00,VWS V14.01,2013-01-26 11:04:00,
2013-01-26 21:09:00,89.4,72.7,29.29,ENE,68,0.0,0.0,58,0.00,,,0.00,VWS V14.01,2013-01-26 11:09:00,
2013-01-26 21:14:00,89.1,72.9,29.29,NE,45,0.0,0.0,59,0.00,,,0.00,VWS V14.01,2013-01-26 11:14:00,
2013-01-26 21:20:00,88.9,72.7,29.29,ENE,68,2.2,2.2,59,0.00,,,0.00,VWS V14.01,2013-01-26 11:20:00,
2013-01-26 21:25:00,89.4,72.7,29.29,SW,225,2.0,2.2,58,0.00,,,0.00,VWS V14.01,2013-01-26 11:25:00,
2013-01-26 21:30:00,89.1,72.9,29.29,NNW,338,1.6,2.2,59,0.00,,,0.00,VWS V14.01,2013-01-26 11:30:00,
2013-01-26 21:35:00,89.1,72.9,29.29,SW,225,5.6,5.6,59,0.00,,,0.00,VWS V14.01,2013-01-26 11:35:00,
2013-01-26 21:40:00,89.1,72.9,29.29,East,90,0.0,3.1,59,0.00,,,0.00,VWS V14.01,2013-01-26 11:40:00,
2013-01-26 21:45:00,89.1,72.9,29.29,SE,135,0.0,0.0,59,0.00,,,0.00,VWS V14.01,2013-01-26 11:45:00,
2013-01-26 21:50:00,89.1,72.9,29.29,SSE,158,1.6,1.6,59,0.00,,,0.00,VWS V14.01,2013-01-26 11:50:00,
2013-01-26 21:55:00,88.7,73.0,29.29,East,90,1.6,1.6,60,0.00,,,0.00,VWS V14.01,2013-01-26 11:55:00,
2013-01-26 22:00:00,88.3,73.2,29.32,ENE,68,0.9,1.6,61,0.00,,,0.00,VWS V14.01,2013-01-26 12:00:00,
2013-01-26 22:05:00,88.2,73.0,29.32,North,360,1.1,1.1,61,0.00,,,0.00,VWS V14.01,2013-01-26 12:05:00,
2013-01-26 22:10:00,88.2,73.0,29.32,ENE,68,0.0,0.0,61,0.00,,,0.00,VWS V14.01,2013-01-26 12:10:00,
2013-01-26 22:15:00,88.2,73.0,29.32,East,90,0.0,0.0,61,0.00,,,0.00,VWS V14.01,2013-01-26 12:15:00,
2013-01-26 22:20:00,88.0,73.3,29.32,SSE,158,0.0,0.0,62,0.00,,,0.00,VWS V14.01,2013-01-26 12:20:00,
2013-01-26 22:25:00,88.0,73.3,29.32,NE,45,0.0,0.0,62,0.00,,,0.00,VWS V14.01,2013-01-26 12:25:00,
2013-01-26 22:30:00,88.0,73.3,29.29,SE,135,0.0,0.0,62,0.00,,,0.00,VWS V14.01,2013-01-26 12:30:00,
2013-01-26 22:35:00,87.8,73.2,29.29,NNE,22,0.0,0.0,62,0.00,,,0.00,VWS V14.01,2013-01-26 12:35:00,
2013-01-26 22:40:00,87.6,73.5,29.29,NNE,22,0.0,0.0,63,0.00,,,0.00,VWS V14.01,2013-01-26 12:40:00,
2013-01-26 22:46:00,87.6,73.5,29.32,NE,45,0.0,0.0,63,0.00,,,0.00,VWS V14.01,2013-01-26 12:46:00,
2013-01-26 22:51:00,87.6,73.5,29.32,East,90,0.0,0.0,63,0.00,,,0.00,VWS V14.01,2013-01-26 12:51:00,
2013-01-26 22:56:00,87.3,73.6,29.32,East,90,0.0,0.0,64,0.00,,,0.00,VWS V14.01,2013-01-26 12:56:00,
2013-01-26 23:01:00,87.3,73.6,29.32,WNW,292,2.5,2.5,64,0.00,,,0.00,VWS V14.01,2013-01-26 13:01:00,
2013-01-26 23:06:00,87.1,73.4,29.32,NW,315,0.0,2.5,64,0.00,,,0.00,VWS V14.01,2013-01-26 13:06:00,
2013-01-26 23:11:00,87.1,73.4,29.32,SE,135,3.8,3.8,64,0.00,,,0.00,VWS V14.01,2013-01-26 13:11:00,
2013-01-26 23:16:00,87.1,73.4,29.29,NW,315,1.3,4.7,64,0.00,,,0.00,VWS V14.01,2013-01-26 13:16:00,
2013-01-26 23:21:00,87.3,73.6,29.29,NNE,22,1.3,1.3,64,0.00,,,0.00,VWS V14.01,2013-01-26 13:21:00,
2013-01-26 23:26:00,87.4,73.8,29.29,West,270,5.6,5.6,64,0.00,,,0.00,VWS V14.01,2013-01-26 13:26:00,
2013-01-26 23:31:00,87.4,73.8,29.29,North,360,0.0,0.0,64,0.00,,,0.00,VWS V14.01,2013-01-26 13:31:00,
2013-01-26 23:36:00,87.4,73.8,29.29,ENE,68,0.0,0.0,64,0.00,,,0.00,VWS V14.01,2013-01-26 13:36:00,
2013-01-26 23:41:00,87.4,73.8,29.29,SSE,158,3.8,3.8,64,0.00,,,0.00,VWS V14.01,2013-01-26 13:41:00,
2013-01-26 23:46:00,87.4,73.3,29.29,SSW,202,3.8,3.8,63,0.00,,,0.00,VWS V14.01,2013-01-26 13:46:00,
2013-01-26 23:51:00,87.4,73.3,29.29,WNW,292,0.0,0.0,63,0.00,,,0.00,VWS V14.01,2013-01-26 13:51:00,
2013-01-26 23:56:00,87.4,73.3,29.29,South,180,2.7,2.7,63,0.00,,,0.00,VWS V14.01,2013-01-26 13:56:00,